Temp
-17 -16 -16 -16 -15 -16 -16 -16 -15 -15 -15 -15 -14 -14 -14 -14 -13 -13 -13 -13 -12 -12 -11 -11 -11 -11 -11 -11 -11 -10 -12 -12 -12 -12 -12 -12 -12 -12 -12 -11 -12 -11 -11 -11 -11 -12 -11
-17 -17 -16 -16 -16 -16 -16 -16 -16 -16 -15 -15 -15 -14 -14 -14 -14 -13 -13 -13 -13 -12 -12 -12 -11 -11 -11 -11 -11 -11 -11 -13 -12 -12 -12 -12 -13 -12 -12 -11 -11 -11 -11 -11 -11 -12 -12
-17 -17 -17 -17 -16 -16 -16 -16 -16 -16 -15 -15 -15 -15 -14 -14 -14 -14 -13 -13 -13 -12 -12 -12 -11 -11 -12 -11 -11 -11 -12 -12 -13 -13 -13 -13 -13 -12 -12 -12 -12 -11 -11 -11 -11 -11 -12
-17 -17 -17 -17 -17 -16 -16 -16 -16 -16 -16 -15 -15 -15 -15 -15 -14 -14 -14 -14 -13 -13 -13 -12 -12 -12 -12 -12 -12 -12 -12 -12 -13 -13 -13 -13 -13 -13 -13 -12 -12 -12 -11 -11 -11 -11 -12
-16 -16 -16 -16 -16 -16 -16 -16 -16 -16 -16 -16 -16 -15 -15 -15 -15 -14 -14 -14 -14 -14 -13 -12 -12 -12 -13 -13 -12 -12 -13 -13 -13 -13 -14 -13 -13 -13 -13 -12 -12 -12 -11 -11 -11 -12 -12
-16 -16 -15 -15 -15 -16 -16 -16 -16 -16 -16 -16 -16 -16 -15 -15 -15 -14 -14 -14 -14 -14 -13 -13 -12 -13 -13 -13 -13 -13 -13 -13 -13 -14 -14 -14 -13 -13 -13 -13 -12 -12 -12 -12 -12 -12 -13
-16 -16 -15 -15 -15 -15 -15 -15 -15 -16 -16 -16 -16 -16 -15 -15 -15 -15 -15 -15 -14 -14 -14 -13 -13 -13 -14 -14 -14 -13 -13 -13 -13 -13 -14 -14 -13 -13 -13 -13 -13 -13 -12 -12 -12 -12 -12
-15 -15 -15 -15 -15 -15 -15 -15 -15 -15 -16 -16 -16 -16 -16 -16 -15 -15 -15 -15 -15 -14 -14 -14 -13 -14 -14 -13 -13 -14 -14 -14 -14 -13 -13 -13 -13 -13 -14 -14 -14 -13 -13 -12 -13 -13 -13
-16 -15 -15 -15 -15 -16 -16 -15 -15 -16 -16 -16 -16 -16 -16 -16 -16 -16 -16 -15 -15 -15 -14 -14 -14 -14 -15 -14 -13 -14 -14 -14 -14 -14 -14 -14 -14 -14 -14 -14 -14 -13 -13 -14 -14 -16 -14
-15 -15 -16 -17 -18 -18 -18 -18 -16 -17 -17 -17 -16 -16 -16 -16 -16 -16 -16 -16 -16 -15 -15 -14 -14 -15 -15 -14 -14 -14 -14 -15 -14 -14 -15 -14 -14 -15 -15 -15 -16 -15 -16 -17 -16 -16 -15
-17 -19 -20 -20 -21 -21 -20 -20 -19 -19 -19 -19 -19 -18 -17 -16 -16 -16 -16 -16 -16 -16 -15 -14 -15 -15 -15 -14 -14 -15 -15 -15 -15 -16 -16 -15 -16 -17 -16 -18 -18 -17 -18 -18 -18 -17 -17
-20 -22 -23 -23 -23 -23 -22 -22 -21 -20 -21 -21 -20 -19 -18 -17 -17 -16 -17 -16 -16 -16 -15 -15 -15 -15 -15 -15 -15 -15 -16 -16 -17 -18 -18 -18 -18 -18 -18 -19 -19 -19 -19 -19 -19 -19 -17
-23 -24 -24 -24 -24 -25 -24 -23 -22 -22 -20 -21 -20 -20 -20 -19 -18 -17 -17 -16 -16 -16 -16 -16 -16 -15 -15 -15 -15 -16 -17 -18 -18 -19 -19 -19 -19 -19 -19 -20 -20 -20 -20 -20 -19 -19 -15
-25 -25 -25 -25 -26 -26 -25 -24 -22 -22 -21 -21 -21 -20 -20 -20 -19 -18 -17 -17 -16 -16 -16 -16 -16 -15 -15 -15 -16 -17 -17 -19 -19 -20 -20 -21 -21 -20 -20 -20 -20 -20 -20 -20 -19 -18 -17
-25 -25 -26 -27 -27 -26 -26 -25 -23 -23 -22 -21 -21 -20 -20 -20 -20 -19 -18 -16 -16 -17 -16 -16 -15 -15 -15 -16 -17 -18 -19 -20 -20 -21 -22 -21 -21 -21 -21 -21 -21 -21 -21 -20 -20 -19 -18
-25 -26 -27 -27 -26 -26 -26 -25 -23 -22 -21 -20 -20 -20 -20 -20 -20 -19 -18 -17 -17 -17 -17 -16 -16 -15 -16 -17 -18 -19 -20 -21 -21 -21 -21 -21 -21 -21 -21 -21 -22 -21 -21 -22 -21 -19 -18
-26 -26 -28 -27 -27 -27 -26 -25 -23 -22 -21 -21 -20 -21 -20 -21 -20 -20 -18 -18 -17 -17 -16 -16 -16 -16 -17 -17 -17 -19 -20 -20 -20 -21 -20 -21 -20 -21 -21 -20 -21 -22 -21 -22 -20 -19 -18
-26 -27 -28 -28 -27 -26 -26 -25 -24 -21 -21 -22 -20 -20 -20 -20 -20 -19 -18 -18 -17 -17 -16 -16 -16 -17 -16 -17 -17 -17 -18 -19 -19 -18 -19 -20 -20 -20 -20 -20 -21 -21 -22 -21 -19 -18 -18
-26 -27 -27 -27 -26 -25 -24 -24 -24 -22 -21 -21 -20 -20 -19 -20 -19 -19 -19 -18 -17 -17 -16 -16 -16 -17 -17 -17 -17 -17 -17 -19 -19 -19 -19 -20 -19 -19 -19 -19 -19 -20 -20 -21 -20 -19 -18
-25 -26 -25 -25 -25 -24 -22 -22 -21 -21 -20 -20 -20 -20 -20 -20 -20 -19 -19 -18 -17 -17 -17 -16 -17 -17 -17 -17 -17 -17 -18 -18 -19 -19 -19 -19 -18 -17 -17 -18 -18 -19 -20 -20 -19 -18 -17
-25 -24 -24 -24 -24 -23 -22 -21 -21 -21 -20 -20 -20 -20 -19 -19 -19 -19 -19 -18 -17 -17 -17 -17 -17 -16 -17 -17 -17 -17 -18 -18 -18 -18 -18 -18 -17 -17 -17 -16 -17 -18 -19 -18 -16 -17 -15
-24 -23 -23 -23 -23 -22 -22 -21 -21 -21 -21 -20 -20 -19 -20 -19 -20 -19 -18 -18 -18 -17 -17 -17 -17 -16 -16 -17 -16 -16 -16 -17 -17 -17 -17 -17 -16 -16 -16 -15 -16 -17 -18 -16 -16 -16 -16
-24 -23 -23 -22 -22 -22 -21 -21 -21 -21 -21 -20 -20 -20 -20 -20 -20 -19 -19 -18 -17 -17 -17 -17 -16 -16 -16 -15 -16 -16 -16 -16 -17 -17 -17 -17 -16 -16 -16 -16 -16 -16 -16 -16 -15 -15 -15
-23 -23 -22 -22 -22 -22 -22 -21 -21 -20 -20 -20 -20 -20 -20 -20 -20 -19 -18 -18 -18 -17 -17 -17 -16 -16 -16 -15 -15 -15 -16 -16 -16 -16 -16 -16 -16 -15 -15 -15 -15 -16 -15 -15 -15 -15 -14
-23 -21 -21 -21 -22 -21 -21 -21 -20 -20 -20 -20 -20 -19 -19 -20 -19 -19 -18 -18 -18 -17 -17 -16 -16 -16 -16 -16 -15 -15 -15 -15 -15 -16 -16 -16 -16 -16 -16 -16 -16 -16 -16 -15 -15 -14 -14
-22 -21 -21 -21 -21 -21 -21 -21 -20 -20 -20 -20 -20 -20 -20 -19 -19 -19 -18 -18 -17 -17 -16 -16 -16 -16 -17 -17 -16 -16 -14 -15 -15 -15 -15 -15 -15 -15 -15 -15 -15 -15 -16 -15 -15 -15 -15
-22 -21 -21 -21 -21 -21 -21 -21 -21 -20 -20 -20 -20 -20 -20 -19 -19 -19 -18 -18 -17 -17 -16 -16 -16 -16 -16 -17 -16 -16 -16 -15 -14 -15 -15 -15 -15 -15 -15 -15 -15 -15 -15 -15 -15 -16 -15
-23 -21 -21 -21 -20 -21 -21 -21 -21 -21 -21 -21 -20 -20 -20 -19 -19 -18 -18 -18 -17 -17 -16 -16 -16 -16 -16 -16 -16 -17 -16 -16 -15 -16 -16 -15 -15 -15 -16 -15 -15 -15 -15 -15 -15 -15 -15
-23 -22 -21 -21 -20 -20 -21 -21 -21 -21 -20 -21 -20 -20 -20 -20 -20 -18 -18 -18 -17 -17 -16 -16 -16 -16 -16 -16 -16 -17 -17 -17 -17 -16 -17 -17 -16 -16 -15 -15 -15 -15 -16 -16 -16 -16 -15
Height
5702 5700 5699 5698 5696 5695 5696 5697 5697 5698 5700 5703 5705 5708 5711 5713 5715 5717 5720 5722 5723 5725 5726 5728 5729 5729 5728 5729 5729 5728 5730 5729 5729 5729 5730 5732 5734 5737 5742 5745 5747 5751 5754 5755 5758 5760 5761
5690 5689 5689 5688 5687 5685 5686 5688 5688 5690 5692 5694 5697 5699 5702 5704 5708 5710 5712 5715 5716 5717 5719 5720 5721 5721 5720 5721 5722 5722 5721 5721 5721 5722 5723 5725 5727 5727 5732 5737 5739 5742 5744 5746 5748 5752 5753
5683 5681 5679 5678 5678 5677 5676 5677 5679 5680 5682 5685 5687 5690 5693 5695 5698 5702 5704 5706 5708 5708 5710 5712 5714 5713 5712 5713 5715 5715 5712 5712 5714 5715 5716 5718 5719 5721 5724 5726 5729 5732 5735 5737 5740 5742 5744
5673 5672 5670 5668 5668 5668 5668 5667 5668 5670 5672 5674 5677 5680 5683 5686 5688 5692 5695 5697 5699 5701 5702 5704 5706 5706 5704 5705 5706 5707 5704 5703 5704 5706 5707 5709 5710 5711 5714 5715 5718 5720 5724 5727 5731 5732 5734
5662 5660 5658 5657 5656 5656 5655 5656 5657 5658 5661 5663 5666 5669 5672 5676 5679 5682 5685 5687 5690 5692 5694 5696 5698 5698 5698 5696 5697 5697 5697 5694 5695 5696 5698 5699 5700 5701 5703 5704 5707 5709 5714 5718 5721 5723 5724
5650 5647 5644 5642 5640 5640 5641 5643 5644 5646 5648 5651 5654 5657 5661 5665 5668 5672 5676 5678 5681 5684 5687 5688 5689 5691 5690 5688 5688 5687 5687 5686 5686 5687 5687 5689 5688 5689 5690 5694 5699 5702 5703 5708 5709 5712 5710
5639 5634 5628 5625 5623 5621 5621 5625 5627 5631 5634 5637 5641 5644 5649 5653 5657 5661 5665 5668 5673 5676 5678 5680 5682 5681 5680 5680 5679 5678 5677 5677 5675 5676 5677 5674 5673 5678 5684 5683 5683 5685 5689 5694 5696 5694 5697
5618 5612 5608 5604 5600 5599 5599 5601 5605 5611 5616 5621 5625 5631 5635 5641 5645 5650 5654 5658 5661 5667 5670 5670 5672 5671 5669 5670 5671 5668 5666 5666 5664 5666 5662 5661 5663 5668 5667 5667 5671 5673 5676 5683 5682 5681 5684
5597 5587 5580 5575 5571 5570 5571 5575 5580 5588 5595 5602 5609 5616 5621 5628 5632 5640 5643 5648 5652 5656 5659 5664 5661 5662 5659 5659 5660 5656 5655 5652 5653 5652 5649 5649 5653 5652 5654 5655 5656 5660 5663 5665 5668 5668 5674
5576 5563 5550 5542 5538 5540 5542 5547 5553 5563 5573 5582 5590 5598 5606 5615 5624 5628 5635 5638 5642 5647 5647 5654 5652 5651 5650 5649 5649 5644 5643 5643 5641 5640 5635 5635 5639 5640 5641 5640 5642 5646 5651 5652 5654 5656 5661
5551 5536 5524 5516 5512 5510 5513 5519 5528 5539 5552 5564 5572 5582 5591 5602 5610 5618 5623 5629 5633 5638 5636 5642 5642 5642 5641 5641 5638 5634 5631 5627 5627 5625 5622 5625 5625 5624 5623 5631 5629 5635 5636 5639 5641 5644 5646
5524 5510 5502 5494 5490 5486 5490 5496 5504 5518 5534 5549 5561 5568 5576 5588 5599 5605 5612 5618 5624 5629 5627 5631 5632 5631 5630 5629 5627 5622 5618 5613 5610 5608 5608 5609 5610 5611 5615 5617 5619 5621 5624 5626 5628 5632 5633
5504 5492 5481 5474 5470 5468 5471 5477 5486 5503 5520 5538 5548 5557 5567 5577 5587 5594 5601 5609 5615 5616 5621 5624 5623 5621 5621 5618 5614 5609 5604 5600 5597 5595 5593 5593 5595 5597 5602 5603 5606 5607 5612 5615 5618 5620 5623
5488 5476 5464 5459 5459 5459 5461 5464 5475 5491 5510 5528 5539 5550 5556 5567 5576 5585 5592 5600 5605 5609 5614 5614 5612 5614 5613 5608 5604 5598 5591 5587 5584 5581 5580 5580 5583 5587 5593 5595 5595 5597 5602 5605 5610 5613 5622
5476 5464 5456 5455 5456 5459 5459 5458 5468 5487 5504 5522 5533 5544 5550 5558 5569 5576 5584 5590 5597 5604 5607 5605 5606 5605 5604 5599 5593 5585 5579 5576 5572 5572 5574 5573 5574 5577 5581 5583 5585 5588 5588 5605 5602 5610 5616
5467 5456 5453 5454 5454 5453 5451 5453 5463 5481 5497 5510 5528 5536 5543 5554 5562 5569 5576 5583 5591 5598 5597 5600 5600 5599 5596 5591 5584 5576 5572 5571 5569 5570 5568 5569 5569 5571 5572 5574 5576 5579 5588 5588 5592 5603 5608
5460 5452 5450 5449 5448 5447 5449 5454 5463 5475 5492 5507 5518 5530 5540 5548 5555 5561 5568 5578 5586 5588 5591 5595 5594 5593 5592 5587 5582 5575 5572 5570 5568 5567 5565 5566 5565 5567 5566 5567 5571 5573 5575 5579 5589 5597 5605
5456 5449 5447 5446 5445 5444 5446 5452 5461 5476 5488 5502 5515 5518 5530 5541 5548 5556 5565 5574 5578 5583 5587 5588 5589 5587 5587 5585 5582 5576 5574 5572 5569 5566 5565 5563 5560 5559 5561 5562 5563 5565 5570 5578 5583 5593 5600
5453 5447 5445 5444 5442 5443 5447 5454 5461 5477 5489 5502 5511 5520 5527 5538 5544 5553 5565 5567 5574 5579 5581 5583 5583 5582 5584 5582 5580 5576 5575 5573 5570 5568 5567 5565 5560 5560 5557 5557 5558 5560 5565 5572 5582 5594 5601
5450 5445 5442 5443 5447 5450 5452 5458 5468 5477 5488 5497 5508 5515 5523 5531 5541 5551 5557 5564 5570 5574 5576 5577 5578 5578 5580 5579 5577 5576 5574 5572 5569 5567 5564 5562 5558 5559 5559 5561 5561 5562 5564 5571 5579 5589 5603
5448 5444 5443 5444 5448 5454 5460 5466 5472 5481 5489 5498 5507 5514 5526 5531 5542 5549 5555 5561 5566 5569 5572 5573 5573 5573 5576 5575 5576 5574 5572 5571 5569 5567 5563 5562 5561 5561 5561 5559 5565 5569 5571 5572 5577 5589 5597
5448 5444 5445 5446 5450 5455 5460 5465 5474 5482 5490 5499 5504 5516 5526 5534 5539 5546 5552 5559 5561 5563 5566 5568 5570 5569 5571 5571 5572 5571 5572 5572 5572 5569 5567 5565 5562 5566 5566 5568 5571 5575 5577 5581 5586 5588 5594
5448 5447 5447 5448 5450 5455 5462 5469 5475 5482 5492 5499 5508 5519 5525 5529 5538 5543 5550 5554 5557 5560 5564 5564 5565 5566 5568 5567 5571 5571 5573 5573 5573 5572 5569 5569 5567 5570 5572 5574 5577 5579 5580 5584 5588 5591 5598
5447 5445 5447 5450 5453 5459 5466 5471 5476 5483 5490 5500 5509 5516 5523 5530 5535 5542 5547 5551 5554 5556 5559 5561 5561 5563 5564 5566 5569 5572 5573 5573 5574 5575 5574 5574 5572 5573 5577 5580 5581 5583 5584 5586 5591 5597 5600
5445 5445 5449 5452 5457 5463 5466 5472 5478 5486 5494 5503 5508 5515 5520 5527 5533 5539 5543 5548 5549 5552 5555 5557 5558 5559 5561 5564 5567 5570 5573 5574 5575 5577 5579 5578 5579 5580 5581 5583 5585 5588 5590 5593 5597 5602 5605
5444 5444 5448 5453 5459 5464 5469 5475 5480 5487 5495 5500 5506 5511 5519 5525 5532 5537 5540 5545 5547 5550 5552 5553 5554 5554 5557 5561 5564 5568 5571 5575 5578 5579 5580 5582 5584 5584 5585 5587 5589 5591 5594 5596 5600 5605 5608
5440 5443 5446 5451 5458 5464 5469 5475 5481 5488 5494 5500 5505 5511 5518 5524 5530 5535 5538 5542 5544 5547 5549 5549 5549 5550 5554 5558 5563 5566 5570 5573 5577 5579 5581 5583 5585 5587 5588 5590 5592 5594 5595 5598 5602 5607 5607
5436 5435 5441 5446 5453 5461 5468 5475 5480 5486 5492 5498 5503 5509 5516 5524 5528 5532 5536 5539 5542 5544 5545 5546 5546 5548 5552 5555 5560 5564 5568 5570 5573 5577 5580 5584 5585 5587 5588 5589 5592 5592 5596 5599 5601 5602 5605
5429 5428 5434 5441 5449 5457 5465 5473 5480 5486 5491 5495 5502 5508 5515 5521 5526 5530 5534 5536 5538 5541 5542 5543 5544 5547 5552 5555 5559 5561 5564 5568 5571 5574 5578 5582 5585 5585 5587 5588 5588 5590 5592 5595 5597 5600 5603
Wind_Speed
44 41 37 32 32 36 37 34 33 35 35 35 34 32 31 30 30 28 27 26 27 28 28 29 28 28 27 29 31 28 24 28 32 34 36 35 41 47 45 45 44 41 39 38 36 34 35
36 42 38 34 30 32 39 38 36 35 38 39 38 36 34 32 33 32 30 29 28 27 28 28 29 29 30 30 33 32 29 27 33 35 34 35 35 39 43 44 46 44 42 42 40 38 39
40 36 39 39 36 32 33 41 41 37 37 40 41 40 38 37 35 35 34 32 30 29 29 30 30 30 30 31 33 33 32 30 30 35 36 36 36 37 38 41 43 43 42 41 43 43 41
46 43 38 40 41 40 36 35 42 43 41 40 42 44 42 41 39 37 35 35 32 32 31 32 31 30 30 32 33 33 34 31 32 35 38 40 41 40 38 39 40 41 42 43 43 44 45
50 48 45 44 44 46 44 41 40 42 45 45 44 43 44 44 42 41 38 36 34 33 33 33 33 32 31 32 35 34 35 34 34 36 39 44 45 45 45 44 44 45 46 45 44 44 46
53 54 54 55 52 49 49 49 45 47 43 45 48 47 45 44 45 44 43 41 39 36 36 36 36 35 36 35 34 36 37 38 36 36 38 40 48 50 50 47 46 45 46 46 48 46 49
52 55 57 58 60 60 58 54 55 54 52 51 47 49 50 47 46 45 44 43 42 40 40 39 38 38 35 34 36 38 39 40 39 39 38 42 46 49 46 47 49 49 48 49 50 53 53
63 64 62 62 63 66 66 65 62 57 57 57 55 51 48 51 50 47 44 42 44 45 41 40 41 40 41 39 36 38 40 42 43 41 45 48 45 43 46 48 49 49 50 49 51 52 55
74 76 75 70 65 63 65 69 68 63 60 58 58 56 53 49 49 48 47 43 42 44 44 41 43 41 40 41 40 41 40 42 41 44 46 45 44 47 49 51 53 53 52 49 49 46 51
80 81 77 70 65 58 60 60 65 63 58 57 58 59 57 53 47 44 45 44 41 40 45 42 44 42 38 37 40 44 45 43 42 40 44 48 47 48 48 50 48 49 44 43 45 46 50
78 69 64 59 56 51 49 53 56 57 50 49 52 55 57 53 49 44 44 42 42 40 44 45 44 39 39 42 46 44 45 46 44 43 46 45 43 45 48 40 42 43 41 43 44 45 48
67 60 51 48 45 45 41 42 48 50 42 42 46 47 51 52 49 45 41 41 40 41 45 43 38 41 43 43 45 45 45 45 43 41 44 45 47 48 46 43 45 44 43 44 44 44 52
57 53 50 43 37 37 32 36 44 43 40 48 45 42 41 50 49 45 41 39 39 41 39 37 38 41 41 43 45 45 43 41 41 39 42 43 43 43 42 41 41 43 43 46 48 49 55
55 53 40 27 24 20 22 30 40 45 44 43 38 40 41 44 46 43 40 38 39 38 34 33 39 39 39 41 41 41 43 36 33 36 38 39 39 38 35 36 40 40 41 45 46 48 44
56 45 24 6 15 12 17 20 34 51 47 42 39 28 38 43 42 41 41 37 35 31 29 34 35 37 36 34 38 38 32 29 25 18 17 22 25 27 35 31 30 30 37 33 41 43 43
54 33 1 17 15 8 10 15 34 54 52 50 39 31 34 36 40 40 41 36 31 26 31 30 31 34 27 29 31 27 20 14 10 13 17 20 25 28 33 35 36 35 31 39 42 42 43
49 24 18 9 7 5 7 18 34 60 43 38 30 40 37 37 40 42 41 31 25 28 27 27 28 24 17 12 8 12 12 9 8 13 14 10 16 19 27 28 29 35 37 38 41 43 45
44 11 18 12 14 12 24 23 38 55 49 42 48 44 34 37 39 41 38 25 28 26 26 25 21 17 6 5 4 5 9 9 3 3 7 13 17 15 18 20 25 33 37 36 44 45 46
41 15 14 18 16 27 27 37 47 44 49 42 37 43 41 41 38 37 29 28 26 24 23 22 18 15 14 13 5 6 7 16 15 16 8 8 8 5 7 10 12 23 29 36 38 43 38
39 18 14 12 24 26 40 34 39 47 45 36 48 44 41 43 41 28 31 25 24 23 22 17 19 16 18 15 7 10 14 14 20 11 12 12 3 13 5 3 4 7 27 37 42 46 32
36 17 9 27 25 34 33 41 47 42 46 43 37 37 35 42 34 32 26 24 23 22 18 19 18 17 19 17 12 10 8 9 13 8 6 9 13 20 5 5 8 14 22 41 50 47 16
32 7 23 33 29 32 36 38 40 36 41 40 39 36 28 32 34 30 26 22 23 23 22 17 15 17 13 15 12 6 5 4 5 2 5 17 19 9 11 21 19 23 34 41 38 27 11
26 4 26 33 32 35 39 35 37 36 41 38 41 35 31 30 30 28 23 24 24 19 18 17 15 15 13 15 9 7 6 6 3 9 10 9 21 12 13 11 24 26 23 19 19 15 24
23 7 32 38 42 45 41 31 36 37 40 33 30 30 33 31 31 23 24 26 20 19 20 13 15 16 22 18 15 14 12 10 5 5 9 12 19 22 21 11 10 11 19 15 16 17 15
19 17 36 43 44 41 37 36 39 35 35 30 28 30 29 36 29 25 25 23 22 18 19 14 11 18 22 22 22 19 17 13 6 9 9 12 14 16 14 12 13 14 16 16 20 17 18
14 22 40 41 42 38 37 36 30 30 34 25 25 28 36 30 29 27 23 20 17 16 18 12 15 22 24 20 19 20 19 15 10 10 8 7 8 6 6 8 8 8 9 9 11 13 12
15 31 42 40 45 39 36 34 33 30 31 27 28 30 29 29 26 24 21 20 16 17 19 14 14 23 24 19 16 16 20 20 16 14 10 6 6 5 5 4 7 8 9 11 13 14 17
13 29 47 41 49 45 38 33 36 27 28 20 26 32 30 26 25 22 19 16 16 16 16 13 14 27 22 17 13 10 12 17 19 16 14 11 9 7 6 5 4 6 11 13 13 13 13
11 26 51 49 54 48 37 34 33 33 24 23 29 29 28 26 23 19 17 16 20 11 8 11 13 26 23 18 13 10 7 8 13 18 21 18 13 13 11 5 5 5 6 9 10 11 13
Wind_Direction
285 279 283 283 282 258 254 259 259 251 247 247 245 244 247 252 253 253 254 254 252 258 259 263 263 267 269 271 269 269 270 264 264 264 255 254 252 247 247 248 252 256 257 256 254 249 246
295 275 276 278 279 270 254 255 257 255 249 247 246 245 245 248 253 255 253 256 255 257 263 266 268 268 272 273 273 274 274 266 261 262 259 253 250 247 246 249 251 254 256 254 252 254 250
303 295 275 276 273 272 265 253 254 255 254 250 247 246 246 246 249 255 257 256 260 259 263 264 269 273 275 276 276 276 274 271 267 261 260 255 251 250 247 248 250 253 253 253 255 255 252
302 298 289 279 274 270 266 264 253 253 253 253 251 248 247 249 249 251 255 258 260 262 263 264 269 277 278 280 279 276 278 278 274 263 255 256 251 249 248 247 247 248 248 249 250 252 251
296 297 295 286 277 271 264 258 259 253 250 251 252 251 250 249 250 252 252 256 261 264 266 266 268 277 282 281 282 278 276 273 275 274 264 255 253 251 250 249 249 249 248 248 250 254 255
293 290 286 284 282 278 270 263 254 254 254 250 249 251 249 249 251 251 254 256 259 264 266 269 268 276 280 284 283 278 273 272 270 273 272 266 259 256 253 256 256 257 256 253 252 249 252
301 297 291 284 278 274 271 267 261 256 253 252 250 248 248 249 249 250 252 255 258 259 262 269 270 274 277 278 281 279 275 273 268 269 272 268 261 258 260 257 252 250 248 249 249 251 248
307 303 297 289 280 270 266 264 261 256 252 250 248 246 247 245 246 248 250 254 257 258 260 265 270 274 280 281 282 282 276 271 268 270 271 271 270 264 256 254 254 253 254 254 253 250 249
309 307 301 292 282 272 263 258 257 254 250 247 245 245 244 244 245 245 247 250 254 256 259 261 268 272 280 283 284 279 274 274 275 274 274 272 268 263 260 259 259 258 257 252 252 247 249
310 305 298 291 284 273 262 254 248 248 244 243 241 240 241 242 243 245 245 247 251 256 258 258 262 272 280 282 282 281 280 277 275 274 271 270 269 267 263 260 256 257 253 247 244 242 242
311 302 296 290 283 276 262 249 241 238 233 230 237 235 236 236 237 239 241 243 248 252 257 257 262 272 279 280 284 284 282 280 276 272 270 270 262 256 255 251 245 246 242 243 240 239 236
311 306 303 295 287 276 265 245 232 226 222 212 230 235 229 229 230 232 235 239 245 251 253 258 267 273 278 283 287 287 283 282 281 274 268 262 259 255 253 247 246 244 237 234 234 234 237
317 315 310 298 283 275 261 237 223 213 191 204 223 228 232 223 226 224 227 234 240 247 254 259 267 273 281 289 291 289 285 282 280 275 273 267 255 252 248 244 243 241 234 233 231 229 235
325 323 315 303 285 280 263 235 217 197 193 200 214 223 221 220 221 220 222 229 237 246 250 260 267 277 286 291 290 287 288 288 282 271 262 254 250 250 250 255 251 245 237 235 234 233 236
332 328 318 4 65 35 346 255 207 181 190 186 193 212 214 219 219 219 218 226 235 243 248 257 272 283 289 295 297 297 298 296 285 267 254 254 248 255 250 247 244 232 227 229 234 237 239
337 331 146 110 51 43 272 230 187 178 173 165 187 194 212 213 215 216 219 221 233 235 248 261 275 284 297 307 309 307 305 284 274 251 248 246 251 250 249 247 237 235 225 222 224 222 228
341 330 165 108 181 122 243 174 178 184 165 178 187 207 203 198 217 215 216 219 221 234 248 261 274 287 307 318 8 351 340 317 285 264 262 270 255 235 236 240 230 224 219 214 217 216 219
345 309 201 191 208 188 157 171 178 179 183 189 199 207 197 201 212 213 216 207 218 233 247 260 272 293 233 219 148 17 358 357 329 240 230 251 269 256 238 233 235 229 218 217 208 203 209
347 310 258 230 218 164 166 177 170 169 180 180 191 197 188 195 210 212 212 211 216 229 244 256 280 274 214 240 243 246 243 313 299 273 268 256 324 135 165 183 214 216 208 204 206 203 204
345 331 290 203 164 168 156 154 153 167 172 179 197 195 200 200 207 200 210 209 213 228 238 251 267 253 210 232 274 277 270 280 315 296 290 281 63 12 5 157 290 258 206 206 201 195 187
346 340 192 163 156 170 162 159 166 174 176 181 186 200 204 202 204 207 207 207 216 226 226 248 253 248 216 225 249 261 268 287 295 313 269 285 338 8 267 167 195 195 200 182 185 183 160
349 334 183 175 168 182 168 166 182 178 184 194 188 191 197 204 210 213 205 205 214 222 211 239 245 247 225 221 220 224 326 228 108 89 51 35 52 54 185 152 165 184 189 173 181 223 227
349 269 185 172 173 181 174 175 191 184 177 193 203 199 203 210 204 207 206 212 219 214 220 232 238 233 223 225 202 194 182 166 79 25 52 67 77 146 197 158 187 197 221 235 219 233 158
347 221 185 173 165 172 179 182 180 170 172 180 188 197 205 201 201 199 203 210 216 217 214 227 239 230 221 206 207 188 213 251 178 84 102 106 108 112 132 144 109 113 120 133 136 142 137
342 197 193 180 173 180 177 185 177 169 175 195 201 202 209 193 201 201 206 206 212 217 216 252 257 225 223 214 209 205 215 213 174 152 106 105 123 119 120 126 118 122 133 144 154 160 171
330 200 195 183 180 185 189 189 166 178 185 192 217 207 192 192 198 204 207 213 215 208 209 234 254 223 220 217 209 208 210 212 198 188 125 117 134 134 132 126 132 142 158 164 179 192 199
315 201 192 193 190 188 178 184 181 183 189 199 200 198 201 199 200 198 205 213 213 202 218 236 245 211 216 212 199 208 210 212 199 208 225 184 169 162 163 162 164 190 194 196 206 210 213
307 207 198 199 195 194 191 187 181 187 192 207 208 199 201 197 198 204 204 209 209 209 238 228 222 195 203 206 184 183 197 206 208 211 208 208 192 207 180 201 225 221 202 205 215 224 224
307 210 201 198 194 200 205 189 197 194 200 199 195 196 198 201 197 202 203 209 211 220 222 213 202 197 197 199 211 223 215 218 196 205 206 209 208 208 210 227 241 226 210 201 209 225 223